Regional Weather Roundup
Issued by NWS

Home | Current Version | Previous Version | Graphics & Text | Print | Product List | Glossary On
Versions: 1 2 3 4 5 6 7 8 9 10 11 12 13 14 15 16 17 18 19 20 21 22 23 24 25 26 27
000
ASUS45 KSLC 032310
RWRUT

UTAH REGIONAL WEATHER ROUNDUP
NATIONAL WEATHER SERVICE SALT LAKE CITY UT
500 PM MDT TUE MAY 03 2016

UTZ001>011-023>025-040000-

NORTHERN UTAH

CITY           SKY/WX    TMP DP  RH WIND       PRES   REMARKS
BRIGHAM CITY   SUNNY     72  29  20 CALM      30.17F
DUGWAY         MOSUNNY   76  32  20 NW6       30.15
HILL AFB       SUNNY     70  30  23 NW7       30.18F
LOGAN          SUNNY     72  32  23 NW5       30.17F
OGDEN          SUNNY     71  30  21 N9        30.16F
PROVO AIRPORT  MOSUNNY   70  25  18 VRB6      30.16F
SALT LAKE CITY MOSUNNY   73  30  20 N7G16     30.15F
VERNAL         SUNNY     70  23  17 CALM      30.19F
WENDOVER       SUNNY     70  32  24 SE8       30.18F
HEBER CITY     SUNNY     72  27  18 W7        30.16F

$$

UTZ012>022-026-027-040000-

SOUTHERN/CENTRAL UTAH

CITY           SKY/WX    TMP DP  RH WIND       PRES   REMARKS
BLANDING       SUNNY     69  25  19 NE9       30.25S
BRYCE CANYON   SUNNY     61  25  25 VRB3G20   30.28S
CEDAR CITY     SUNNY     69  33  26 SW5       30.14F
DELTA          SUNNY     72  27  18 NW5       30.14F
HANKSVILLE     SUNNY     73  23  15 NE6       30.16F
MILFORD        SUNNY     73  32  22 N7G17     30.13F
MOAB/CYNLANDS  SUNNY     76  28  17 VRB5      30.11F
PRICE          SUNNY     70  25  18 S8        30.20F
ST GEORGE      CLEAR     82  34  17 SE6       30.03F
KANAB          SUNNY     73  27  17 E10       30.18F

$$

REGIONAL REPORTS     COLORADO/ARIZONA

CITY           SKY/WX    TMP DP  RH WIND       PRES   REMARKS
CRAIG, CO      SUNNY     66  28  24 SE6       30.23F
GRAND JUNCTION SUNNY     73  30  20 W7        30.13F
RIFLE          SUNNY     72  24  16 VRB5      30.16F
MONTROSE       SUNNY     70  22  16 W10G17    30.19F
CORTEZ         SUNNY     71  31  22 SW16      30.17F
PAGE, AZ       SUNNY     75  28  17 VRB6      30.13F
GRAND CANYON   SUNNY     66  25  21 E12       30.22F
KINGMAN        SUNNY     83  26  12 E12G17    30.00F
FLAGSTAFF      SUNNY     61  30  31 VRB6      30.23F

$$

REGIONAL REPORTS    NEVADA/IDAHO/WYOMING

CITY           SKY/WX    TMP DP  RH WIND       PRES   REMARKS
LAS VEGAS, NV  PTSUNNY   83  28  13 NE3       29.95F
ELY            SUNNY     66  26  22 S15       30.18F
ELKO           MOSUNNY   71  31  22 E8        30.14F
POCATELLO, ID  MOSUNNY   73  33  23 NW9       30.17F
BURLEY         SUNNY     74  31  20 E5        30.12F
EVANSTON, WY   SUNNY     67  19  16 VRB7      30.26F
ROCK SPRINGS   SUNNY     64  21  19 CALM      30.26F
KEMMERER         N/A     66  18  15 N3        30.28S

$$




USA.gov is the U.S. government's official web portal to all federal, state and local government web resources and services.